Вернуться в каталог

STARLINK-11572

АктивенСвязьVLEO
NORAD 62990·PAYLOAD·🇺🇸 United States

Запущен Feb 11, 2025 с Cape Canaveral Space Force Station

Loading…

Ближайшие Пролёты (ближайшие 24 часа)

TLE

СвежийSource: CelesTrak SupGP

Эпоха: Sep 15, 2026, 03:00 UTC

1 62990C 25031K   26258.12548611  .00050245  00000+0  39016-3 0  2583
2 62990  43.0002 299.4150 0001361 252.2952 258.0134 15.70819846    18

Отслеживайте STARLINK-11572 в реальном времени с AllMySat

Download on the App Store